Waarnemingen

Advertentie
Mijn weer
Capo Caccia, Italië (16522): temperatuur & dauwpunt: 18.02.2018 13:00:00 - 24.02.2018 13:00:00 (CET)Capo Caccia, Italië (16522): windsnelheid: 18.02.2018 13:00:00 - 24.02.2018 13:00:00 (CET)Capo Caccia, Italië (16522): windrichting: 18.02.2018 13:00:00 - 24.02.2018 13:00:00 (CET)Capo Caccia, Italië (16522): luchtdruk: 18.02.2018 13:00:00 - 24.02.2018 13:00:00 (CET)Capo Caccia, Italië (16522): zicht: 18.02.2018 13:00:00 - 24.02.2018 13:00:00 (CET)Capo Caccia, Italië (16522): Zonneschijnduur: 18.02.2018 13:00:00 - 24.02.2018 13:00:00 (CET)
Datum & Tijd tt [°C] td [°C] ff [km/u] ff [kn] dd ppp [hPa] vv [km] sd [min]
24.02.2018 13:00:00 10,2 5,0 21 11 WNW 1005,7 20 60
24.02.2018 12:00:00 10,0 5,4 21 11 WNW 1006,2 20 60
24.02.2018 11:00:00 9,8 6,2 26 14 NW 1005,6 20 -
24.02.2018 10:00:00 8,8 6,2 26 14 NW 1005,6 20 0
24.02.2018 09:00:00 8,0 5,6 26 14 NNW 1005,0 10 0
24.02.2018 08:00:00 7,8 6,6 28 15 NNW 1004,5 10 0
24.02.2018 07:00:00 7,0 6,3 8 4 N 1004,1 10 0
24.02.2018 06:00:00 7,4 7,1 8 4 N 1003,5 10 -
24.02.2018 05:00:00 7,4 6,2 16 9 NNW 1003,5 10 -
24.02.2018 04:00:00 7,6 6,9 18 10 WNW 1003,1 10 -
24.02.2018 03:00:00 7,6 6,1 26 14 W 1002,9 10 -
24.02.2018 02:00:00 7,6 6,9 26 14 W 1002,9 10 -
24.02.2018 01:00:00 8,0 4,8 31 17 W 1002,6 15 -
24.02.2018 00:00:00 8,8 7,6 28 15 W 1002,6 15 -
23.02.2018 23:00:00 9,4 9,0 29 16 W 1002,1 15 -
23.02.2018 22:00:00 9,0 7,1 35 19 W 1002,1 10 -
23.02.2018 21:00:00 9,0 6,4 35 19 WNW 1001,8 15 -
23.02.2018 20:00:00 9,0 7,4 31 17 WNW 1001,5 15 -
23.02.2018 19:00:00 9,0 7,3 34 18 W 1001,5 20 0
23.02.2018 18:00:00 9,8 7,0 34 18 N 1001,3 20 0
23.02.2018 17:00:00 10,0 6,9 28 15 WNW 1001,2 20 60
23.02.2018 16:00:00 10,0 6,7 26 14 NW 1001,2 20 60
23.02.2018 15:00:00 10,2 5,6 28 15 WNW 1001,2 20 0
23.02.2018 14:00:00 10,0 6,4 18 10 NW 1001,4 20 60
23.02.2018 13:00:00 9,6 6,1 15 8 NNW 1002,2 20 0
23.02.2018 12:00:00 11,0 5,7 21 11 NNW 1002,1 20 30
23.02.2018 11:00:00 10,0 5,2 21 11 NNW 1002,2 20 30
23.02.2018 10:00:00 10,0 6,7 13 7 N 1002,2 20 0
23.02.2018 09:00:00 8,2 6,7 11 6 NNO 1002,3 20 18
23.02.2018 08:00:00 6,0 6,0 11 6 NNO 1001,3 20 0
23.02.2018 07:00:00 6,0 5,3 11 6 ZO 1000,8 20 0
23.02.2018 06:00:00 6,4 6,1 5 3 NNO 1000,7 20 -
23.02.2018 05:00:00 7,0 6,2 5 3 OZO 1000,8 20 -
23.02.2018 04:00:00 7,0 6,1 2 1 OZO 1001,1 20 -
23.02.2018 03:00:00 8,0 5,5 5 3 WNW 1001,2 20 -
23.02.2018 02:00:00 8,2 5,7 4 2 NO 1001,6 20 -
23.02.2018 01:00:00 7,0 5,0 0 0 N 1001,9 20 -
23.02.2018 00:00:00 7,0 5,5 4 2 N 1002,2 20 -
22.02.2018 23:00:00 6,4 6,1 4 2 WZW 1002,3 20 -
22.02.2018 22:00:00 6,0 6,0 2 1 O 1002,3 20 -
22.02.2018 21:00:00 6,0 6,0 8 4 O 1002,0 20 -
22.02.2018 20:00:00 6,0 5,2 8 4 O 1001,8 20 -
22.02.2018 19:00:00 6,4 4,6 9 5 ONO 1001,6 20 0
22.02.2018 18:00:00 7,0 5,5 5 3 ONO 1001,2 20 0
22.02.2018 17:00:00 7,6 7,6 16 9 NNO 1000,9 20 0
22.02.2018 16:00:00 7,0 7,0 15 8 N 1000,9 4,0 0
22.02.2018 15:00:00 9,0 6,3 18 10 NW 1000,7 20 36
22.02.2018 14:00:00 9,8 5,0 8 4 WNW 1001,1 20 18
22.02.2018 13:00:00 9,0 4,8 5 3 WNW 1001,3 20 0
22.02.2018 12:00:00 8,0 4,0 0 0 N 1001,4 20 0
22.02.2018 11:00:00 8,0 4,8 8 4 ONO 1001,0 20 0
22.02.2018 10:00:00 7,0 5,0 11 6 ONO 1001,0 20 0
22.02.2018 09:00:00 6,0 4,5 11 6 ONO 1001,1 20 0
22.02.2018 08:00:00 5,2 3,7 8 4 NO 1000,8 20 0
22.02.2018 07:00:00 5,2 4,0 21 11 NO 1000,8 20 -
22.02.2018 06:00:00 5,4 4,4 18 10 ONO 1001,0 20 -
22.02.2018 05:00:00 5,2 4,3 18 10 NO 1001,1 20 -
22.02.2018 04:00:00 5,4 4,7 22 12 NO 1001,0 20 -
22.02.2018 03:00:00 5,6 4,9 21 11 NO 1001,7 20 -
22.02.2018 02:00:00 5,6 4,9 24 13 ONO 1002,3 20 -
22.02.2018 01:00:00 5,6 4,3 28 15 ONO 1002,4 20 -
22.02.2018 00:00:00 5,4 3,9 34 18 ONO 1002,5 20 -
21.02.2018 23:00:00 5,8 4,8 24 13 NO 1002,7 20 -
21.02.2018 22:00:00 6,0 4,2 31 17 NO 1002,6 20 -
21.02.2018 21:00:00 6,0 4,5 26 14 NO 1002,5 20 -
21.02.2018 20:00:00 6,0 4,0 21 11 NO 1002,6 20 -
21.02.2018 19:00:00 6,0 3,3 16 9 ONO 1002,6 20 0
21.02.2018 18:00:00 6,2 2,7 15 8 O 1002,3 20 0
21.02.2018 17:00:00 7,8 4,6 22 12 NO 1002,2 20 0
21.02.2018 16:00:00 10,6 3,6 8 4 WZW 1001,9 20 0
21.02.2018 15:00:00 11,4 3,4 8 4 WNW 1002,2 20 60
21.02.2018 14:00:00 11,6 3,4 8 4 W 1002,2 20 60
21.02.2018 13:00:00 11,0 3,5 5 3 WNW 1002,7 20 30
21.02.2018 12:00:00 11,4 3,9 8 4 WNW 1003,2 20 60
21.02.2018 11:00:00 10,0 3,7 8 4 NNW 1003,3 20 24
21.02.2018 10:00:00 9,0 3,0 11 6 NW 1003,3 20 24
21.02.2018 09:00:00 8,0 3,5 5 3 N 1003,2 20 36
21.02.2018 08:00:00 7,0 2,1 5 3 N 1002,9 20 12
21.02.2018 07:00:00 6,2 2,3 11 6 N 1003,5 20 0
21.02.2018 06:00:00 6,8 3,2 11 6 NW 1003,6 20 -
21.02.2018 05:00:00 6,2 3,4 5 3 N 1003,8 20 -
21.02.2018 04:00:00 5,6 4,6 8 4 N 1004,4 20 -
21.02.2018 03:00:00 5,2 4,9 9 5 NO 1005,4 10 -
21.02.2018 02:00:00 5,8 3,7 15 8 N 1005,4 15 -
21.02.2018 01:00:00 6,0 4,2 22 12 NNW 1005,5 10 -
21.02.2018 00:00:00 5,6 4,2 16 9 NNO 1005,5 20 -
20.02.2018 23:00:00 5,6 5,2 16 9 NNO 1005,5 20 -
20.02.2018 22:00:00 6,4 5,8 21 11 NNO 1004,8 20 -
20.02.2018 21:00:00 6,4 6,1 26 14 NNO 1004,6 20 -
20.02.2018 20:00:00 6,6 5,9 24 13 NNO 1004,1 20 -
20.02.2018 19:00:00 7,6 6,1 35 19 NNO 1003,3 20 0
20.02.2018 18:00:00 10,0 5,8 21 11 NNW 1002,4 20 24
20.02.2018 17:00:00 10,2 5,8 18 10 NW 1002,4 20 48
20.02.2018 16:00:00 11,0 5,3 24 13 WNW 1003,0 20 48
20.02.2018 15:00:00 11,4 6,5 16 9 WZW 1003,6 20 48
20.02.2018 14:00:00 11,6 5,5 21 11 W 1006,4 20 30
20.02.2018 13:00:00 10,4 3,0 39 21 WZW 1005,2 15 12
20.02.2018 12:00:00 10,0 3,7 34 18 NW 1006,1 15 0
20.02.2018 11:00:00 10,2 2,1 34 18 W 1007,0 15 0
20.02.2018 10:00:00 9,8 2,4 28 15 W 1007,7 20 0
20.02.2018 09:00:00 10,0 6,2 5 3 Z 1008,4 20 0
20.02.2018 08:00:00 9,8 3,5 15 8 WNW 1009,0 20 -
20.02.2018 07:00:00 9,4 3,8 16 9 NNO 1009,1 15 0
20.02.2018 06:00:00 9,0 4,8 18 10 WNW 1009,5 20 -
20.02.2018 05:00:00 8,4 6,0 21 11 W 1010,0 15 -
20.02.2018 04:00:00 9,0 8,7 13 7 WNW 1010,5 6 -
20.02.2018 03:00:00 10,4 6,5 11 6 W 1010,8 20 -
20.02.2018 02:00:00 8,8 4,8 15 8 W 1012,4 20 -
20.02.2018 01:00:00 8,8 4,6 16 9 NW 1012,8 20 -
20.02.2018 00:00:00 9,0 4,4 15 8 NW 1013,0 20 -
19.02.2018 23:00:00 9,0 5,0 16 9 NNW 1013,4 20 -
19.02.2018 22:00:00 9,2 5,6 15 8 NNW 1013,4 20 -
19.02.2018 21:00:00 9,2 5,0 22 12 NNW 1013,1 20 -
19.02.2018 20:00:00 9,2 6,6 18 10 N 1013,0 20 -
19.02.2018 19:00:00 9,8 6,2 24 13 NNW 1012,9 20 0
19.02.2018 18:00:00 10,8 6,2 21 11 NW 1012,5 20 60
19.02.2018 17:00:00 11,4 7,3 22 12 NW 1012,5 30 60
19.02.2018 16:00:00 12,4 8,3 21 11 NNW 1013,2 30 60
19.02.2018 15:00:00 12,4 7,1 22 12 WNW 1013,3 30 60
19.02.2018 14:00:00 11,8 6,5 18 10 WNW 1014,2 30 60
19.02.2018 13:00:00 12,2 7,7 16 9 WNW 1014,3 30 60
19.02.2018 12:00:00 12,0 7,3 15 8 NW 1014,4 20 60
19.02.2018 11:00:00 12,0 8,3 13 7 NW 1014,4 30 60
19.02.2018 10:00:00 12,0 7,7 15 8 NW 1014,4 20 42
19.02.2018 09:00:00 11,4 7,5 15 8 NW 1014,4 15 0
19.02.2018 08:00:00 11,4 8,6 15 8 NNW 1014,4 15 0
19.02.2018 07:00:00 11,6 9,2 15 8 NNW 1014,3 15 0
19.02.2018 06:00:00 11,6 9,4 18 10 NNW 1014,3 15 -
19.02.2018 05:00:00 11,6 9,2 22 12 NW 1014,3 15 -
19.02.2018 04:00:00 11,6 9,5 21 11 NW 1014,3 10 -
19.02.2018 03:00:00 11,6 9,9 21 11 NW 1014,5 15 -
19.02.2018 02:00:00 11,6 9,4 26 14 NW 1014,9 15 -
19.02.2018 01:00:00 11,6 9,5 26 14 NNW 1015,4 15 -
19.02.2018 00:00:00 11,8 10,2 24 13 NW 1015,4 15 -
18.02.2018 23:00:00 12,0 9,5 22 12 NW 1015,4 15 -
18.02.2018 22:00:00 12,0 9,0 29 16 NW 1015,4 10 -
18.02.2018 21:00:00 11,8 9,4 24 13 NNW 1015,4 15 -
18.02.2018 20:00:00 11,4 10,0 26 14 NW 1015,3 15 -
18.02.2018 19:00:00 11,0 10,4 22 12 NW 1015,2 15 0
18.02.2018 18:00:00 11,0 10,2 26 14 WNW 1015,2 15 0
18.02.2018 17:00:00 11,0 9,4 18 10 WNW 1015,2 15 0
18.02.2018 16:00:00 11,2 7,7 21 11 W 1015,2 10 0
18.02.2018 15:00:00 11,0 6,4 28 15 WZW 1015,2 15 0
18.02.2018 14:00:00 11,0 6,9 28 15 W 1015,5 15 0
18.02.2018 13:00:00 11,0 6,4 29 16 W 1016,6 20 30

tt = temperatuur
td = dauwpunt
ff = windsnelheid
dd = windrichting
ppp = luchtdruk
vv = zicht
sd = Zonneschijnduur

Weerstations in de omgeving